Location: *
(48.7358°N, 0.3111°E)
Time: 16:08:48
(UTC+00:00)

CENTAUR R/B - Pass Details

Date: 22 October 2019
Orbit: 781 x 1407 km, 63.4° (Epoch: 10 November)

Event Time Altitude Azimuth Distance (km) Brightness Sun altitude
Exits shadow 02:09:14 50° 45° (NE) 1,625 3.7 -41.5°
Drops below altitude 10° 02:17:07 10° 111° (ESE) 3,461 5.6 -40.5°
Sets 02:20:14 0° 116° (ESE) 4,459 6.2 -40.1°
